Home > Weather > Zeitz > Past weeks

Flag for Germany Past Weather in Zeitz, Saxony-Anhalt, Germany — Yesterday and Last 2 Weeks

Now
52 °F

Overcast.


Feels Like: 49 °F
Forecast: 53 / 69 °F
Wind: 8 mph from Northwest

Location: Leipzig-Schkeuditz

Current Time: May 25, 2016 at 7:23:49 AM

Latest Report: May 25, 2016 at 6:50 AM


Visibility: N/A

Pressure: 29.95 "Hg

Humidity: 88%

Dew Point: 48 °F

Location of ZeitzLocation

Past Weather in Zeitz — Graph

°F

Zeitz Temperature Yesterday

Maximum temperature yesterday: 59 °F (at 12:20 AM)
Minimum temperature yesterday: 52 °F (at 11:50 PM)
Average temperature yesterday: 57 °F

High & Low Weather Summary for the Past Weeks

 TemperatureHumidityPressure
High82 °F (May 22, 2:50 PM)100% (May 23, 9:20 PM)30.07 "Hg (May 23, 9:20 PM)
Low37 °F (May 15, 2:20 AM)28% (May 22, 3:20 PM)29.50 "Hg (May 12, 4:50 PM)
Average58 °F69%29.85 "Hg
* Reported May 10 6:20 AM — May 25 6:20 AM, Zeitz, Weather by CustomWeather, © 2016

Note: Actual official high and low records may vary slightly from our data, if they occured in-between our weather recording intervals... More about our weather records

Advertising

Zeitz Weather History for the Previous 24 Hours

Scroll right to see more
 ConditionsComfort  
Time TempWeatherWind HumidityBarometerVisibility
6:20 AM
Wed, May 25
52 °FPartly sunny.8 mph88%29.95 "HgN/A
5:50 AM52 °FPassing clouds.8 mph88%29.95 "HgN/A
5:20 AM52 °FPassing clouds.9 mph88%29.95 "HgN/A
4:50 AM52 °FPassing clouds.8 mph88%29.95 "HgN/A
4:20 AM52 °FPassing clouds.10 mph88%29.95 "HgN/A
3:50 AM52 °FPassing clouds.7 mph88%29.95 "HgN/A
3:20 AM52 °FPassing clouds.8 mph88%29.95 "HgN/A
2:50 AM52 °FPassing clouds.9 mph88%29.95 "HgN/A
2:20 AM52 °FOvercast.7 mph94%29.95 "HgN/A
1:50 AM52 °FOvercast.9 mph94%29.95 "HgN/A
1:20 AM54 °FOvercast.8 mph88%29.95 "HgN/A
12:50 AM54 °FOvercast.7 mph88%29.95 "HgN/A
12:20 AM54 °FOvercast.9 mph88%29.95 "HgN/A
11:50 PM
Tue, May 24
52 °FOvercast.10 mph100%29.95 "Hg5 mi
11:20 PM54 °FLight rain. Overcast.9 mph88%29.95 "Hg4 mi
10:50 PM54 °FOvercast.10 mph88%29.95 "HgN/A
10:20 PM54 °FOvercast.8 mph88%29.92 "HgN/A
9:50 PM54 °FOvercast.8 mph88%29.92 "Hg5 mi
9:20 PM54 °FLow clouds.12 mph88%29.92 "Hg5 mi
8:50 PM54 °FLow clouds.13 mph88%29.92 "Hg5 mi
8:20 PM54 °FLow clouds.9 mph88%29.92 "Hg5 mi
7:50 PM54 °FLow clouds.13 mph88%29.89 "Hg5 mi
7:20 PM54 °FPartly sunny.13 mph88%29.92 "Hg5 mi
6:50 PM54 °FPartly sunny.12 mph94%29.89 "HgN/A
6:20 PM54 °FLow clouds.14 mph94%29.89 "HgN/A
5:50 PM54 °FLow clouds.12 mph94%29.89 "HgN/A
5:20 PM54 °FLow clouds.17 mph94%29.89 "HgN/A
4:50 PM54 °FLow clouds.16 mph94%29.89 "HgN/A
4:20 PM55 °FPartly sunny.15 mph88%29.89 "HgN/A
3:50 PM55 °FPartly sunny.15 mph88%29.89 "HgN/A
3:20 PM55 °FPartly sunny.15 mph94%29.86 "HgN/A
2:50 PM57 °FPartly sunny.16 mph88%29.86 "HgN/A
2:20 PM57 °FPartly sunny.16 mph88%29.86 "HgN/A
1:50 PM59 °FPartly sunny.16 mph82%29.86 "HgN/A
1:20 PM57 °FPartly sunny.16 mph88%29.86 "HgN/A
12:50 PM57 °FPartly sunny.15 mph88%29.86 "HgN/A
12:20 PM57 °FPartly sunny.16 mph88%29.86 "HgN/A
11:50 AM57 °FPartly sunny.15 mph88%29.83 "HgN/A
11:20 AM55 °FDrizzle. Low clouds.18 mph100%29.83 "HgN/A
10:50 AM55 °FDrizzle. Low clouds.16 mph100%29.83 "HgN/A
10:20 AM57 °FDrizzle. Low clouds.15 mph94%29.83 "HgN/A
9:50 AM57 °FDrizzle. Low clouds.16 mph94%29.80 "Hg5 mi
9:20 AM57 °FDrizzle. Low clouds.15 mph94%29.80 "Hg5 mi
8:50 AM57 °FDrizzle. Partly sunny.13 mph94%29.80 "Hg5 mi
8:20 AM59 °FDrizzle. Partly sunny.9 mph94%29.80 "HgN/A
7:50 AM59 °FLight rain. Mostly cloudy.7 mph94%29.80 "HgN/A
7:20 AM59 °FMostly cloudy.8 mph94%29.80 "HgN/A
Weather by CustomWeather, © 2016

See weather overviewHow to use our weather pages